Ozark, AL

9:51 PM CDT on May 22, 2017 (GMT -0500)
Cairns Army Air Field

Weather History for KOZR - January, 2014

Change the Weather History Date:

Saturday, January 11, 2014

  Actual Average Record
Temperature  
Mean Temperature 60 °F -  
Max Temperature 70 °F 58 °F 79 °F (2013)
Min Temperature 49 °F 36 °F 24 °F (2004)
Degree Days  
Heating Degree Days 4    
Growing Degree Days 10 (Base 50)    
Moisture  
Dew Point 62 °F    
Average Humidity 90    
Maximum Humidity 100    
Minimum Humidity 45    
Precipitation  
Precipitation 0.33 in - - ()
Sea Level Pressure  
Sea Level Pressure 29.90 in    
Wind  
Wind Speed 10 mph (SSW)    
Max Wind Speed 20 mph    
Max Gust Speed 28 mph    
Visibility 8 miles    
Events Rain , Thunderstorm    
Averages and records for this station are not official NWS values.
T = Trace of Precipitation, MM = Missing Value Source: NWS Daily Summary

Daily Weather History Graph

Daily Weather History Graph

Search for Another Location

Airport or City:

Trip Planner

Search our weather history database for the weather conditions in past years. The results will help you decide how hot, cold, wet, or windy it might be!

Date:

Astronomy

Jan. 11, 2014 Rise Set
Actual Time 6:42 AM CST 4:59 PM CST
Civil Twilight 6:16 AM CST 5:25 PM CST
Nautical Twilight 5:46 AM CST 5:55 PM CST
Astronomical Twilight 5:16 AM CST 6:24 PM CST
Moon 1:40 PM CST (1/11) 2:50 AM CST (1/11)
Length of Visible Light 11h 09m
Length of Day
10h 16m
Waxing Gibbous, 83% of the Moon is Illuminated
Jan 11
Waxing Gibbous
Jan 15
Full
Jan 23
Last Quarter
Jan 30
New
Feb 6
First Quarter

Hourly Weather History & Observations

Time (CST) Temp. Dew Point Humidity Pressure Visibility Wind Dir Wind Speed Gust Speed Precip Events Conditions
12:53 AM 64.4 °F 64.4 °F 100% 29.96 in 1.0 mi South 5.8 mph - N/A   Overcast
12:58 AM 64.4 °F 64.4 °F 100% 29.97 in 1.2 mi South 8.1 mph - N/A   Overcast
1:03 AM 64.4 °F 64.4 °F 100% 29.95 in 2.5 mi SSE 8.1 mph - N/A   Overcast
1:14 AM 64.4 °F 64.4 °F 100% 29.95 in 4.0 mi South 11.5 mph - N/A   Scattered Clouds
1:19 AM 66.2 °F 66.2 °F 100% 29.94 in 4.0 mi SSE 10.4 mph - N/A   Mostly Cloudy
1:44 AM 66.2 °F 66.2 °F 100% 29.94 in 7.0 mi South 10.4 mph - N/A   Overcast
1:58 AM 65.8 °F 65.8 °F 100% 29.95 in 8.0 mi SSW 11.5 mph - N/A   Overcast
2:14 AM 66.2 °F 66.2 °F 100% 29.95 in 4.0 mi SSW 10.4 mph - N/A Rain Light Rain
2:24 AM 66.2 °F 66.2 °F 100% 29.95 in 2.5 mi SSW 6.9 mph - N/A Rain Heavy Rain
2:25 AM 66.2 °F 66.2 °F 100% 29.95 in 2.5 mi SSW 6.9 mph - N/A Rain , Thunderstorm Heavy Thunderstorms and Rain
2:30 AM 66.2 °F 66.2 °F 100% 29.94 in 3.0 mi South 6.9 mph - N/A Rain , Thunderstorm Thunderstorms and Rain
2:40 AM 66.2 °F 66.2 °F 100% 29.93 in 6.0 mi SSE 9.2 mph - N/A Rain Light Rain
2:54 AM 66.2 °F 66.2 °F 100% 29.92 in 10.0 mi South 9.2 mph - N/A   Overcast
2:58 AM 66.4 °F 66.4 °F 100% 29.93 in 10.0 mi South 9.2 mph - 0.11 in   Overcast
3:03 AM 66.2 °F 66.2 °F 100% 29.92 in 10.0 mi SSE 10.4 mph - N/A   Overcast
3:13 AM 66.2 °F 66.2 °F 100% 29.91 in 10.0 mi SSE 9.2 mph - N/A   Overcast
3:23 AM 66.2 °F 66.2 °F 100% 29.90 in 10.0 mi SSE 10.4 mph - N/A   Overcast
3:44 AM 66.2 °F 66.2 °F 100% 29.89 in 10.0 mi South 11.5 mph - N/A   Overcast
3:58 AM 67.1 °F 66.7 °F 99% 29.90 in 10.0 mi South 13.8 mph - N/A   Overcast
4:33 AM 68.0 °F 66.2 °F 94% 29.89 in 10.0 mi South 13.8 mph 20.7 mph N/A   Overcast
4:38 AM 68.0 °F 66.2 °F 94% 29.90 in 10.0 mi South 12.7 mph 20.7 mph N/A   Overcast
4:48 AM 68.0 °F 66.2 °F 94% 29.90 in 10.0 mi SSW 12.7 mph 23.0 mph N/A   Overcast
4:58 AM 67.6 °F 66.7 °F 97% 29.91 in 10.0 mi South 12.7 mph - N/A   Overcast
5:03 AM 68.0 °F 66.2 °F 94% 29.89 in 10.0 mi South 9.2 mph - N/A   Overcast
5:13 AM 68.0 °F 66.2 °F 94% 29.88 in 10.0 mi South 11.5 mph 18.4 mph N/A   Overcast
5:53 AM 68.0 °F 68.0 °F 100% 29.86 in 10.0 mi South 11.5 mph - N/A   Overcast
5:58 AM 68.0 °F 67.3 °F 98% 29.86 in 10.0 mi South 10.4 mph - N/A   Overcast
6:32 AM 68.0 °F 68.0 °F 100% 29.85 in 10.0 mi South 10.4 mph 18.4 mph N/A Rain Light Rain
6:37 AM 68.0 °F 68.0 °F 100% 29.86 in 10.0 mi South 13.8 mph 18.4 mph N/A Rain Light Rain
6:48 AM 68.0 °F 68.0 °F 100% 29.85 in 10.0 mi South 13.8 mph 21.9 mph N/A   Overcast
6:58 AM 68.2 °F 67.6 °F 98% 29.86 in 10.0 mi South 12.7 mph 21.9 mph 0.00 in   Overcast
7:03 AM 68.0 °F 68.0 °F 100% 29.86 in 10.0 mi South 16.1 mph - N/A   Overcast
7:18 AM 68.0 °F 68.0 °F 100% 29.86 in 10.0 mi South 12.7 mph 23.0 mph N/A   Mostly Cloudy
7:58 AM 68.5 °F 66.9 °F 95% 29.86 in 10.0 mi South 15.0 mph 25.3 mph N/A   Mostly Cloudy
8:27 AM 68.0 °F 66.2 °F 94% 29.86 in 10.0 mi South 13.8 mph - N/A Thunderstorm Thunderstorm
8:30 AM 68.0 °F 66.2 °F 94% 29.86 in 10.0 mi South 11.5 mph - N/A Rain , Thunderstorm Thunderstorms and Rain
8:42 AM 68.0 °F 66.2 °F 94% 29.85 in 7.0 mi South 17.3 mph 27.6 mph N/A Rain Light Rain
8:45 AM 68.0 °F 66.2 °F 94% 29.85 in 9.0 mi South 16.1 mph 23.0 mph N/A   Overcast
8:46 AM 68.0 °F 66.2 °F 94% 29.85 in 10.0 mi South 15.0 mph 23.0 mph N/A Thunderstorm Thunderstorm
8:47 AM 68.0 °F 66.2 °F 94% 29.85 in 10.0 mi South 15.0 mph - N/A Rain , Thunderstorm Light Thunderstorms and Rain
8:58 AM 67.3 °F 66.4 °F 97% 29.86 in 10.0 mi South 16.1 mph - 0.03 in Rain , Thunderstorm Light Thunderstorms and Rain
9:01 AM 68.0 °F 66.2 °F 94% 29.86 in 10.0 mi South 13.8 mph - N/A Rain Light Rain
9:16 AM 68.0 °F 66.2 °F 94% 29.87 in 9.0 mi SSW 15.0 mph 23.0 mph N/A Rain Light Rain
9:25 AM 68.0 °F 66.2 °F 94% 29.87 in 5.0 mi South 12.7 mph - N/A Rain , Thunderstorm Light Thunderstorms and Rain
9:45 AM 68.0 °F 66.2 °F 94% 29.86 in 7.0 mi SSW 15.0 mph 19.6 mph N/A Rain Light Rain
9:55 AM 68.0 °F 66.2 °F 94% 29.86 in 8.0 mi SW 19.6 mph 25.3 mph N/A Rain , Thunderstorm Light Thunderstorms and Rain
9:58 AM 67.6 °F 66.2 °F 95% 29.88 in 8.0 mi SW 16.1 mph 25.3 mph 0.08 in Rain , Thunderstorm Light Thunderstorms and Rain
10:00 AM 68.0 °F 66.2 °F 94% 29.88 in 4.0 mi West 16.1 mph 25.3 mph N/A Rain , Thunderstorm Light Thunderstorms and Rain
10:05 AM 68.0 °F 66.2 °F 94% 29.88 in 2.0 mi WSW 17.3 mph 25.3 mph N/A Rain , Thunderstorm Heavy Thunderstorms and Rain
10:10 AM 68.0 °F 66.2 °F 94% 29.88 in 3.0 mi West 12.7 mph - N/A Rain Light Rain
10:58 AM 65.1 °F 63.5 °F 94% 29.88 in 10.0 mi West 10.4 mph - 0.08 in Rain Light Rain
11:24 AM 64.4 °F 62.6 °F 94% 29.89 in 5.0 mi West 11.5 mph - N/A Rain Light Rain
11:33 AM 64.4 °F 62.6 °F 94% 29.88 in 7.0 mi WSW 10.4 mph - N/A Rain Light Rain
11:58 AM 64.0 °F 63.0 °F 96% 29.84 in 10.0 mi West 5.8 mph - 0.03 in   Mostly Cloudy
12:58 PM 65.3 °F 63.3 °F 93% 29.81 in 10.0 mi West 5.8 mph - 0.00 in   Mostly Cloudy
1:58 PM 68.7 °F 61.7 °F 78% 29.81 in 10.0 mi WSW 9.2 mph - N/A   Partly Cloudy
2:58 PM 70.7 °F 60.4 °F 70% 29.79 in 10.0 mi WSW 9.2 mph - N/A   Partly Cloudy
3:58 PM 69.1 °F 54.0 °F 58% 29.81 in 10.0 mi WNW 10.4 mph - N/A   Clear
4:58 PM 66.0 °F 50.7 °F 58% 29.84 in 10.0 mi West 9.2 mph - N/A   Partly Cloudy
5:58 PM 62.6 °F 43.5 °F 50% 29.88 in 10.0 mi NW 5.8 mph - N/A   Clear
6:58 PM 58.6 °F 42.1 °F 54% 29.91 in 10.0 mi WNW 4.6 mph - N/A   Clear
7:58 PM 55.6 °F 40.5 °F 57% 29.96 in 10.0 mi West 5.8 mph - N/A   Clear
8:58 PM 55.2 °F 35.4 °F 47% 30.00 in 10.0 mi WNW 10.4 mph - N/A   Clear
9:58 PM 54.5 °F 33.3 °F 45% 30.04 in 10.0 mi WNW 9.2 mph - N/A   Clear
10:58 PM 51.4 °F 34.9 °F 53% 30.06 in 10.0 mi WNW 4.6 mph - N/A   Clear
11:58 PM 49.5 °F 34.7 °F 57% 30.07 in 10.0 mi WNW 3.5 mph - N/A   Clear